Weather History for KFGN - March, 2013

Change the Weather History Date:

Friday, March 15, 2013

  Actual Average Record
Temperature  
Mean Temperature 11 °F -  
Max Temperature 17 °F 25 °F 60 °F (2015)
Min Temperature 5 °F 7 °F -14 °F (1997)
Degree Days  
Heating Degree Days 54    
Moisture  
Dew Point 1 °F    
Average Humidity 70    
Maximum Humidity 92    
Minimum Humidity 44    
Precipitation  
Precipitation 0.00 in - - ()
Sea Level Pressure  
Sea Level Pressure 30.10 in    
Wind  
Wind Speed 11 mph (North)    
Max Wind Speed 16 mph    
Max Gust Speed 18 mph    
Visibility 9 miles    
Events Snow    
Averages and records for this station are not official NWS values.
T = Trace of Precipitation, MM = Missing Value Source: NWS Daily Summary

Daily Weather History Graph

Daily Weather History Graph

Search for Another Location

Airport or City:

Trip Planner

Search our weather history database for the weather conditions in past years. The results will help you decide how hot, cold, wet, or windy it might be!

Date:

Astronomy

Mar. 15, 2013 Rise Set
Actual Time 7:32 AM CDT 7:25 PM CDT
Civil Twilight 7:00 AM CDT 7:57 PM CDT
Nautical Twilight 6:23 AM CDT 8:34 PM CDT
Astronomical Twilight 5:45 AM CDT 9:12 PM CDT
Moon 8:59 AM CDT (3/15) No Moon Set
Length of Visible Light 12h 56m
Length of Day
11h 52m
Waxing Crescent, 15% of the Moon is Illuminated
Mar 15
Waxing Crescent
Mar 19
First Quarter
Mar 27
Full
Apr 2
Last Quarter
Apr 10
New

Hourly Weather History & Observations

Time (CDT) Temp. Windchill Dew Point Humidity Pressure Visibility Wind Dir Wind Speed Gust Speed Precip Events Conditions
12:13 AM 17.6 °F 3.7 °F 12.2 °F 79% 30.08 in 10.0 mi NNW 13.8 mph - N/A   Scattered Clouds
12:33 AM 17.6 °F 4.3 °F 12.2 °F 79% 30.08 in 10.0 mi NNW 12.7 mph - N/A   Scattered Clouds
12:53 AM 17.6 °F 5.0 °F 12.2 °F 79% 30.07 in 10.0 mi NNW 11.5 mph - N/A   Clear
1:13 AM 15.8 °F 4.2 °F 12.2 °F 86% 30.08 in 10.0 mi NNW 9.2 mph - N/A   Clear
1:33 AM 15.8 °F 4.2 °F 12.2 °F 86% 30.08 in 10.0 mi NNW 9.2 mph - N/A   Clear
1:53 AM 15.8 °F 3.4 °F 10.4 °F 79% 30.09 in 10.0 mi NW 10.4 mph - N/A   Clear
2:14 AM 14.0 °F 0.5 °F 10.4 °F 86% 30.09 in 10.0 mi NW 11.5 mph - N/A   Clear
2:33 AM 14.0 °F 1.2 °F 10.4 °F 86% 30.10 in 10.0 mi NW 10.4 mph - N/A   Clear
2:53 AM 14.0 °F 2.0 °F 10.4 °F 86% 30.10 in 10.0 mi NNW 9.2 mph - N/A   Clear
3:13 AM 12.2 °F -0.2 °F 8.6 °F 85% 30.11 in 10.0 mi NW 9.2 mph - N/A   Clear
3:34 AM 12.2 °F -0.2 °F 8.6 °F 85% 30.11 in 10.0 mi NNW 9.2 mph - N/A   Clear
3:53 AM 10.4 °F -2.4 °F 8.6 °F 92% 30.11 in 10.0 mi NNW 9.2 mph - N/A   Scattered Clouds
4:13 AM 12.2 °F -0.2 °F 8.6 °F 85% 30.11 in 10.0 mi NW 9.2 mph - N/A   Scattered Clouds
4:34 AM 10.4 °F -4.1 °F 6.8 °F 85% 30.12 in 10.0 mi NNW 11.5 mph - N/A   Clear
4:53 AM 10.4 °F -2.4 °F 6.8 °F 85% 30.12 in 10.0 mi NNW 9.2 mph - N/A   Clear
5:13 AM 10.4 °F -2.4 °F 6.8 °F 85% 30.11 in 10.0 mi North 9.2 mph - N/A   Clear
5:34 AM 10.4 °F -4.1 °F 6.8 °F 85% 30.11 in 10.0 mi North 11.5 mph - N/A   Clear
5:53 AM 10.4 °F -3.3 °F 6.8 °F 85% 30.11 in 10.0 mi NNE 10.4 mph - N/A   Clear
6:13 AM 10.4 °F -3.3 °F 5.0 °F 79% 30.12 in 10.0 mi NNE 10.4 mph - N/A   Scattered Clouds
6:34 AM 8.6 °F -5.5 °F 3.2 °F 79% 30.12 in 10.0 mi NNE 10.4 mph - N/A   Overcast
6:53 AM 8.6 °F -7.7 °F 3.2 °F 79% 30.13 in 10.0 mi NNE 13.8 mph - N/A   Overcast
7:13 AM 8.6 °F -8.9 °F 1.4 °F 73% 30.13 in 10.0 mi NE 16.1 mph - N/A   Overcast
7:34 AM 8.6 °F -5.5 °F 1.4 °F 73% 30.14 in 10.0 mi NE 10.4 mph 18.4 mph N/A   Mostly Cloudy
7:53 AM 6.8 °F -6.9 °F -0.4 °F 72% 30.13 in 10.0 mi NE 9.2 mph - N/A   Scattered Clouds
8:13 AM 6.8 °F -5.9 °F -0.4 °F 72% 30.13 in 10.0 mi NE 8.1 mph - N/A   Clear
8:34 AM 6.8 °F -10.0 °F -0.4 °F 72% 30.13 in 10.0 mi NE 13.8 mph - N/A   Clear
8:53 AM 6.8 °F -9.3 °F -2.2 °F 67% 30.12 in 10.0 mi NNE 12.7 mph 17.3 mph N/A   Clear
9:13 AM 6.8 °F -8.6 °F -2.2 °F 67% 30.13 in 10.0 mi NNE 11.5 mph - N/A   Clear
9:34 AM 6.8 °F -8.6 °F -4.0 °F 61% 30.14 in 10.0 mi NNE 11.5 mph - N/A   Mostly Cloudy
9:53 AM 5.0 °F -12.3 °F -4.0 °F 66% 30.14 in 10.0 mi NNE 13.8 mph - N/A   Mostly Cloudy
10:13 AM 5.0 °F -13.0 °F -4.0 °F 66% 30.13 in 10.0 mi NNE 15.0 mph - N/A   Overcast
10:34 AM 5.0 °F -11.6 °F -4.0 °F 66% 30.14 in 10.0 mi NNE 12.7 mph - N/A   Overcast
10:53 AM 6.8 °F -9.3 °F -4.0 °F 61% 30.13 in 10.0 mi NNE 12.7 mph - N/A   Scattered Clouds
11:13 AM 6.8 °F -8.6 °F -2.2 °F 67% 30.13 in 10.0 mi North 11.5 mph - N/A   Clear
11:34 AM 6.8 °F -9.3 °F -4.0 °F 61% 30.12 in 10.0 mi NNE 12.7 mph - N/A   Clear
11:53 AM 6.8 °F -8.6 °F -2.2 °F 67% 30.13 in 10.0 mi North 11.5 mph - N/A   Clear
12:13 PM 6.8 °F -9.3 °F -2.2 °F 67% 30.12 in 10.0 mi North 12.7 mph - N/A   Clear
12:34 PM 6.8 °F -10.0 °F -2.2 °F 67% 30.12 in 10.0 mi NNE 13.8 mph - N/A   Clear
12:53 PM 6.8 °F -8.6 °F -2.2 °F 67% 30.11 in 10.0 mi NNE 11.5 mph - N/A   Clear
1:13 PM 6.8 °F -8.6 °F -2.2 °F 67% 30.11 in 10.0 mi North 11.5 mph - N/A   Clear
1:33 PM 8.6 °F -5.5 °F -2.2 °F 62% 30.11 in 10.0 mi North 10.4 mph - N/A   Clear
1:53 PM 8.6 °F -6.3 °F -2.2 °F 62% 30.09 in 10.0 mi North 11.5 mph - N/A   Scattered Clouds
2:14 PM 8.6 °F -6.3 °F -2.2 °F 62% 30.09 in 10.0 mi North 11.5 mph - N/A   Scattered Clouds
2:33 PM 8.6 °F -5.5 °F -2.2 °F 62% 30.09 in 10.0 mi North 10.4 mph - N/A   Scattered Clouds
2:53 PM 8.6 °F -5.5 °F -2.2 °F 62% 30.09 in 10.0 mi North 10.4 mph - N/A   Clear
3:14 PM 8.6 °F -6.3 °F -4.0 °F 57% 30.08 in 10.0 mi North 11.5 mph - N/A   Scattered Clouds
3:33 PM 8.6 °F -5.5 °F -4.0 °F 57% 30.08 in 10.0 mi North 10.4 mph - N/A   Scattered Clouds
3:53 PM 8.6 °F -6.3 °F -4.0 °F 57% 30.08 in 10.0 mi North 11.5 mph - N/A   Scattered Clouds
4:14 PM 8.6 °F -6.3 °F -5.8 °F 52% 30.08 in 10.0 mi North 11.5 mph - N/A   Scattered Clouds
4:33 PM 10.4 °F -3.3 °F -5.8 °F 48% 30.09 in 10.0 mi NE 10.4 mph - N/A   Scattered Clouds
4:53 PM 10.4 °F -1.5 °F -5.8 °F 48% 30.09 in 10.0 mi NNE 8.1 mph - N/A   Scattered Clouds
5:14 PM 10.4 °F -3.3 °F -7.6 °F 44% 30.09 in 10.0 mi NNE 10.4 mph - N/A   Mostly Cloudy
5:33 PM 10.4 °F -2.4 °F -4.0 °F 52% 30.09 in 5.0 mi NNE 9.2 mph - N/A   Haze
5:53 PM 10.4 °F 2.2 °F -2.2 °F 57% 30.08 in 10.0 mi North 4.6 mph - N/A   Overcast
6:14 PM 10.4 °F -2.4 °F -4.0 °F 52% 30.08 in 10.0 mi NNE 9.2 mph - N/A   Overcast
6:33 PM 10.4 °F -1.5 °F -5.8 °F 48% 30.08 in 10.0 mi North 8.1 mph - N/A   Overcast
6:54 PM 10.4 °F -3.3 °F -5.8 °F 48% 30.08 in 7.0 mi NNE 10.4 mph - N/A Snow Light Snow
7:13 PM 10.4 °F -2.4 °F -2.2 °F 57% 30.08 in 10.0 mi NNE 9.2 mph - N/A Snow Light Snow
7:33 PM 10.4 °F -0.4 °F -0.4 °F 62% 30.08 in 7.0 mi NNE 6.9 mph - N/A   Overcast
7:54 PM 8.6 °F -3.7 °F -0.4 °F 67% 30.08 in 4.0 mi NNE 8.1 mph - N/A Snow Light Snow
8:13 PM 8.6 °F -3.7 °F -0.4 °F 67% 30.09 in 5.0 mi North 8.1 mph - N/A Snow Light Snow
8:33 PM 8.6 °F -4.7 °F -0.4 °F 67% 30.09 in 4.0 mi North 9.2 mph - N/A Snow Light Snow
8:54 PM 8.6 °F -5.5 °F -0.4 °F 67% 30.09 in 5.0 mi North 10.4 mph - N/A Snow Light Snow
9:13 PM 8.6 °F -3.7 °F -0.4 °F 67% 30.09 in 5.0 mi North 8.1 mph - N/A Snow Light Snow
9:54 PM 6.8 °F -3.5 °F 1.4 °F 79% 30.10 in 5.0 mi North 5.8 mph - N/A Snow Light Snow
10:13 PM 6.8 °F -3.5 °F 1.4 °F 79% 30.11 in 10.0 mi North 5.8 mph - N/A Snow Light Snow
10:33 PM 6.8 °F -3.5 °F 1.4 °F 79% 30.11 in 5.0 mi NNW 5.8 mph - N/A Snow Light Snow
10:54 PM 6.8 °F -2.0 °F 1.4 °F 79% 30.10 in 7.0 mi NNW 4.6 mph - N/A Snow Light Snow
11:13 PM 6.8 °F -4.8 °F 1.4 °F 79% 30.11 in 7.0 mi NNW 6.9 mph - N/A   Overcast
11:33 PM 6.8 °F -3.5 °F 1.4 °F 79% 30.11 in 5.0 mi NNW 5.8 mph - N/A   Overcast
11:54 PM 5.0 °F -5.6 °F 1.4 °F 85% 30.11 in 7.0 mi NNW 5.8 mph - N/A   Overcast